Location: Zagreb
(45.8000°N, 16.0000°E)
Time: 17:17:03
(UTC+01:00)

Tiros 1 despin weight - Pass Details

Date: 03 February 2020
Orbit: 594 x 642 km, 48.2° (Epoch: 25 February)

Event Time Altitude Azimuth Distance (km) Brightness Sun altitude
Rises 14:50:13 0° 279° (W) 2,892 ? 17.9°
Reaches altitude 10° 14:53:54 10° 249° (WSW) 1,994 ? 17.4°
Maximum altitude 14:55:40 12° 226° (SW) 1,859 ? 17.2°
Drops below altitude 10° 14:57:27 10° 203° (SSW) 2,000 ? 17.0°
Sets 15:01:09 0° 173° (S) 2,912 ? 16.6°
